x

Central Caribbean - 210 Nm Sse Of Kingston, Jamaica (42058) Wave Buoy

4:50 - Fri 29th May 2015 All times are EST. -5 hours from GMT.

  • Sig Wave height 3.3ft
  • Swell Direction
  • Peak Period 6s
  • Average Period 4s
  • Wind
    13mph, 16mph gusts
  • Sea Temp 81°f
  • Air Temp 80°f
  • Sea Pressure 1011mb
  • Central Caribbean - 210 Nm Sse Of Kingston, Jamaica
  • Central Caribbean - 210 Nm Sse Of Kingston, Jamaica

More Historic Weather Station data

Upgrade to MSW Pro to gain access to the past 30 days of data for over 8000 Wavebouys and Weather Stations around the globe.

Join Pro

Comparision Forecast

View Surf forecast
   
ven. 05/29 4:50 3.5ft 6s 4s 13 16 mph 1011mb 81f 80f
3:50 3.5ft 5s 4s 13
mph
1011.3mb 81f 80f
2:50 3.5ft 6s 4s 11
mph
1012.1mb 81f 80f
1:50 3.5ft 7s 4s 13 16 mph 1012.6mb 81f 81f
12:50 3ft 5s 4s 16 18 mph 1013.1mb 81f 81f
11:50 3.5ft 5s 5s 16 18 mph 1013.7mb 81f 81f
10:50 3.5ft 6s 5s 13 16 mph 1014mb 81f 81f
9:50 3.5ft 5s 5s 13 16 mph 1014.2mb 81f 81f
8:50 3.5ft 6s 5s 13 18 mph 1013.8mb 81f 81f
7:50 3.5ft 7s 5s 16 18 mph 1013.3mb 81f 81f
6:50 3.5ft 7s  -  16 18 mph 1012.8mb 81f 81f
5:50 3.5ft 6s 5s 16 18 mph 1012mb 81f 81f
4:50 3.5ft 7s 4s 16 18 mph 1011.7mb 81f 80f
3:50 3.5ft 6s 4s 16 18 mph 1011.6mb 81f 80f
2:50 3.5ft 7s 5s 16 20 mph 1011.6mb 81f 80f
1:50 3.5ft 7s 5s 16 18 mph 1011.8mb 81f 80f
12:50 3.5ft 6s 5s 16 18 mph 1012.3mb 81f 80f
jeu. 05/28 11:50 3.5ft 7s 5s 13 16 mph 1013.2mb 81f 81f
10:50 3.5ft 7s 5s 13 16 mph 1013.8mb 81f 81f
3:50 4ft 6s 5s 16 18 mph 1011.2mb 81f 81f
2:50 3.5ft 7s 5s 13 16 mph 1011.5mb 81f 81f
1:50 3.5ft 7s 5s 13 16 mph 1012.1mb 82f 81f
12:50 3.5ft 6s 5s 13
mph
1012.8mb 81f 81f
11:50 3.5ft 6s 5s 13 16 mph 1013.5mb 81f 81f
10:50 4ft 6s 5s 16 18 mph 1013.5mb 81f 81f
9:50 4ft 6s 5s 16 18 mph 1013.6mb 81f 81f
8:50 4.5ft 7s 5s 16 18 mph 1013.6mb 81f 81f
7:50 4.5ft 6s 5s 16 18 mph 1013.1mb 81f 81f
6:50 4.5ft 7s 5s 18 22 mph 1012.3mb 81f 81f
5:50 4ft 7s 5s 16 20 mph 1011.4mb 81f 80f
4:50 4.5ft 6s 5s 16 18 mph 1011.1mb 81f 80f
3:50 4.5ft 7s 5s 16 18 mph 1010.7mb 81f 80f
2:50 4.5ft 6s 5s 16 18 mph 1010.6mb 81f 80f
1:50 4.5ft 6s 5s 16 18 mph 1011mb 81f 80f
12:50 4.5ft 7s 5s 16 20 mph 1011.6mb 81f 80f
mer. 05/27 11:50 4.5ft 7s 5s 18 20 mph 1012.3mb 81f 81f
10:50 4.5ft 6s  -  18 22 mph 1012.7mb 81f 81f
9:50 4.5ft 7s 5s 18 20 mph 1012.8mb 81f 81f
8:50 4.5ft 7s 5s 18 20 mph 1012.4mb 81f 81f
7:50 4.5ft 7s 5s 18 20 mph 1011.8mb 81f 80f
6:50 4ft 7s 5s 20 22 mph 1010.9mb 81f 81f
5:50 4ft 7s 4s 16 20 mph 1010.6mb 81f 81f
4:50 4.5ft 7s 5s 18 20 mph 1010.5mb 81f 81f
3:50 4.5ft 7s 5s 18 20 mph 1010.8mb 81f 81f
2:50 4.5ft 6s 5s 18 20 mph 1011.1mb 81f 81f
1:50 4.5ft 7s 5s 16 20 mph 1011.9mb 81f 81f
12:50 4.5ft 7s 5s 18 20 mph 1012.5mb 81f 81f
11:50 4.5ft 7s 5s 18 20 mph 1013mb 81f 81f
10:50 4.5ft 7s 5s 16 20 mph 1013.6mb 81f 81f
9:50 4.5ft 7s 5s 16 18 mph 1013.8mb 81f 80f
8:50 4.5ft 7s 5s 16 20 mph 1013.8mb 81f 81f
7:50 4.5ft 7s 5s 18 20 mph 1013.6mb 81f 81f
6:50 5ft 7s 5s 18 22 mph 1013.1mb 81f 81f
5:50 5.5ft 8s 5s 18 20 mph 1012.2mb 81f 80f
4:50 5ft 6s 5s 18 22 mph 1011.8mb 81f 80f
3:50 5ft 7s 5s 18 22 mph 1011.7mb 81f 80f
2:50 5.5ft 7s 5s 18 20 mph 1011.6mb 81f 80f
1:50 6ft 7s 5s 18 22 mph 1011.9mb 81f 80f
12:50 5ft 7s 5s 20 22 mph 1012.2mb 81f 80f
mar. 05/26 11:50 5.5ft 7s 5s 18 20 mph 1013.1mb 81f 80f
10:50 5.5ft 7s 5s 20 25 mph 1013.6mb 81f 81f
9:50 5ft 7s 5s 20 22 mph 1013.6mb 81f 81f
8:50 5.5ft 7s 5s 20 22 mph 1013.5mb 81f 81f
7:50 5ft 6s 5s 18 22 mph 1013.3mb 81f 81f
6:50 5.5ft 7s 5s 20 25 mph 1012.6mb 81f 81f
5:50 5.5ft 8s 5s 20 22 mph 1012.1mb 81f 81f
4:50 6ft 8s 5s 18 22 mph 1011.7mb 81f 81f
3:50 5.5ft 8s 5s 20 22 mph 1012mb 81f 81f
2:50 6ft 8s 5s 18 22 mph 1012.3mb 81f 81f
1:50 6ft 7s 5s 18 22 mph 1012.6mb 81f 81f
12:50 6ft 8s 5s 20 25 mph 1013.3mb 81f 81f
11:50 6ft 7s 5s 20 22 mph 1014.2mb 81f 81f
10:50 5.5ft 8s 5s 18 22 mph 1014.9mb 81f 81f
9:50 6ft 6s 5s 22 25 mph 1015.2mb 81f 81f
8:50 6ft 7s 5s 20 22 mph 1015.3mb 81f 81f
7:50 6ft 7s 5s 20 25 mph 1015.1mb 81f 81f
6:50 6ft 8s 5s 18 22 mph 1014.6mb 81f 81f
5:50 6ft 6s 5s 20 25 mph 1013.8mb 81f 81f
4:50 7ft 8s 6s 20 25 mph 1013.3mb 81f 81f
3:50 6ft 8s 5s 18 22 mph 1012.9mb 81f 81f
2:50 6.5ft 7s 5s 20 25 mph 1012.5mb 81f 80f
1:50 7ft 8s 6s 20 22 mph 1012.8mb 81f 80f
12:50 6.5ft 8s 5s 20 22 mph 1013.5mb 81f 81f
lun. 05/25 11:50 6.5ft 8s 6s 20 25 mph 1014.2mb 81f 81f